View from above orbital plane
|
View from above satellite
|
Ground track
|
The orbit data is extracted from the following two-line orbital elements,
1 24827U 97028A 21107.43034792 .00000130 00000-0 21334-2 0 9991
2 24827 63.3150 127.6128 1035086 45.7069 44.0603 11.07943852965506
Epoch (UTC): | 17 April 2021 10:19:42 |
Eccentricity: | 0.1035086 |
inclination: | 63.3150° |
perigee height: | 1241 km |
apogee height: | 3001 km |
right ascension of ascending node: | 127.6128° |
argument of perigee: | 45.7069° |
revolutions per day: | 11.07943852 |
mean anomaly at epoch: | 44.0603° |
orbit number at epoch: | 96550 |
The dashed part of the orbit path shows where the satellite is in the earth's shadow,
|
|